Location: Asheville, NC
(35.6000°N, 82.5500°W)
Time: 04:59:09

Hubble Space Telescope - Pass Details

Date: 11 December 2017
Orbit: 537 x 541 km, 28.5° (Epoch: 22 March)

Event Time Altitude Azimuth Distance (km) Brightness Sun altitude
Rises 19:11:14 0° 253° (WSW) 2,676 5.8 -22.5°
Reaches altitude 10° 19:13:41 10° 242° (WSW) 1,785 4.4 -22.9°
Maximum altitude 19:17:19 30° 180° (S) 971 2.1 -23.7°
Enters shadow 19:17:32 30° 174° (S) 975 2.1 -23.7°
